Simultaneous Nadir Overpasses (SNOs) Predictions

Prediction of SNOs between AQUA and METOP-A Satellite Orbit:

Table of predicted SNOs for the next 14.0 days since TLE Epoch: 2/15/2020
Index Date (AQUA) Time (AQUA) Lat,Lon (AQUA) SZA (AQUA ) Date (METOP-A) Time (METOP-A) Lat,Lon (METOP-A) SZA (METOP-A ) Distance(km) Time Diff (sec)
1 02/16/2020 03:28:33 -75.89, -63.10 91.22 02/16/2020 03:27:44 -75.87, -63.12 91.22 2.32 49
2 02/16/2020 04:18:01 75.95, 104.36 88.84 02/16/2020 04:18:23 75.92, 104.37 88.81 3.36 22
3 02/18/2020 23:02:50 -75.88, 3.37 92.22 02/18/2020 23:02:07 -75.89, 3.28 92.19 2.48 43
4 02/18/2020 23:52:18 75.94, 170.81 87.85 02/18/2020 23:52:46 75.93, 170.77 87.84 1.54 28
5 02/21/2020 18:37:07 -75.92, 69.67 93.18 02/21/2020 18:36:29 -75.90, 69.68 93.19 2.52 38
6 02/21/2020 19:26:34 75.94,-122.75 86.84 02/21/2020 19:27:08 75.95,-122.83 86.84 2.35 34
7 02/24/2020 14:11:24 -75.92, 136.10 94.21 02/24/2020 14:10:52 -75.91, 136.08 94.21 1.27 32
8 02/24/2020 15:00:51 75.95, -56.33 85.81 02/24/2020 15:01:31 75.96, -56.44 85.82 3.38 40
9 02/27/2020 09:45:41 -75.93,-157.48 95.26 02/27/2020 09:45:15 -75.93,-157.53 95.25 1.23 26
10 02/27/2020 10:35:08 75.96, 10.08 84.77 02/27/2020 10:35:54 75.97, 9.95 84.78 3.84 46




NCC Satellite Simultaneous Nadir Overpasses (SNOs) Prediction Service
